Location: Boiro
(42.6475°N, 8.8834°W)
Time: 05:46:49
(UTC+01:00)

Vanguard 1 - Pass Details

Date: 05 December 2021
Orbit: 652 x 3830 km, 34.2° (Epoch: 21 January)

Event Time Altitude Azimuth Distance (km) Brightness Sun altitude
Rises 01:43:54 0° 241° (WSW) 7,189 - -69.4°
Reaches altitude 10° 01:48:21 10° 239° (WSW) 6,442 - -69.2°
Maximum altitude 02:10:27 63° 165° (SSE) 4,087 - -67.7°
Exits shadow 02:23:13 31° 100° (E) 4,862 13.4 -66.5°
Drops below altitude 10° 02:30:36 10° 91° (E) 5,961 14.1 -65.7°
Sets 02:34:30 0° 88° (E) 6,656 14.5 -65.2°
